Terug naar catalogus

GALAXY 15

ActiefCommunicatieGEO
NORAD 28884·PAYLOAD· XX

Gelanceerd Oct 13, 2005 vanaf Guiana Space Centre

Loading…

TLE

VersSource: Space-Track

Epoch: Sep 14, 2026, 21:03 UTC

1 28884U 05041A   26257.87719388  .00000008  00000-0  00000-0 0  9991
2 28884   3.7635  76.1985 0017548 141.3053 177.7306  0.98937742 76322

Volg GALAXY 15 in realtime met AllMySat

Download on the App Store